FW2284 Weather Reports


Display with metric or nautical units.
time (UTC)temp
F
wind
direction
speed
MPH
gust
MPH
rain 1hr
in
rain 24hr
in
rain mn
in
humidity
%
barometer
mb
20260901131526 80 162 2.0 5.0 0.00 0.00 0.00 70 1016.9
20260901130025 79 193 2.0 7.0 0.00 0.00 0.00 71 1016.8
20260901124524 79 186 3.0 5.0 0.00 0.00 0.00 72 1016.7
20260901123029 78 195 2.0 7.0 0.00 0.00 0.00 73 1016.5
20260901121520 77 163 2.0 6.0 0.00 0.00 0.00 74 1016.2
20260901120018 75 202 1.0 4.0 0.00 0.00 0.00 76 1016.1
20260901114533 75 221 2.0 4.0 0.00 0.00 0.00 75 1016.0
20260901113001 75 208 2.0 4.0 0.00 0.00 0.00 76 1015.9
20260901111559 75 214 1.0 4.0 0.00 0.00 0.00 76 1015.7
20260901110058 76 202 1.0 5.0 0.00 0.00 0.00 75 1015.8
20260901104601 76 235 2.0 5.0 0.00 0.00 0.00 75 1015.6
20260901103054 76 186 1.0 4.0 0.00 0.00 0.00 75 1015.6
20260901101609 76 226 2.0 4.0 0.00 0.00 0.00 74 1015.6
20260901100052 76 262 2.0 6.0 0.00 0.00 0.00 75 1015.5
20260901094552 75 207 1.0 4.0 0.00 0.00 0.00 77 1015.6
20260901093049 75 160 1.0 3.0 0.00 0.00 0.00 78 1015.5
20260901091548 75 182 1.0 3.0 0.00 0.00 0.00 78 1015.5
20260901090046 76 199 1.0 3.0 0.00 0.00 0.00 78 1015.5
20260901084546 76 205 1.0 3.0 0.00 0.00 0.00 77 1015.2
20260901083044 76 196 1.0 3.0 0.00 0.00 0.00 77 1015.1
20260901081548 76 162 1.0 3.0 0.00 0.00 0.00 77 1015.0
20260901080052 76 176 1.0 2.0 0.00 0.00 0.00 77 1015.1
20260901074547 77 162 1.0 3.0 0.00 0.00 0.00 76 1015.1
20260901073040 78 201 0.0 3.0 0.00 0.00 0.00 75 1015.0
20260901071536 78 205 2.0 7.0 0.00 0.00 0.00 74 1015.0
20260901070035 79 170 2.0 5.0 0.00 0.00 0.00 74 1015.0
20260901064536 79 205 2.0 4.0 0.00 0.00 0.00 73 1015.1
20260901063032 79 214 2.0 5.0 0.00 0.00 0.00 72 1015.0
20260901061530 79 182 2.0 5.0 0.00 0.00 0.00 72 1015.1
20260901060027 80 168 2.0 6.0 0.00 0.00 0.00 71 1015.0
20260901054526 80 223 2.0 4.0 0.00 0.00 0.00 71 1015.0
20260901053025 80 191 1.0 5.0 0.00 0.00 0.00 70 1015.0
20260901051530 80 160 3.0 5.0 0.00 0.00 0.00 71 1014.9
20260901050020 81 154 2.0 7.0 0.00 0.00 0.00 70 1014.9
20260901044523 81 202 2.0 6.0 0.00 0.00 0.00 69 1014.9
20260901043019 82 117 3.0 8.0 0.00 0.00 0.00 68 1014.9
20260901041543 82 209 3.0 8.0 0.00 0.00 0.00 67 1015.0
20260901040020 82 144 2.0 7.0 0.00 0.00 0.00 67 1015.0
20260901034517 83 164 3.0 9.0 0.00 0.00 0.00 66 1015.0
20260901033016 83 162 2.0 6.0 0.00 0.00 0.00 66 1014.9
20260901031516 83 190 2.0 6.0 0.00 0.00 0.00 66 1014.9
20260901030015 84 120 3.0 8.0 0.00 0.00 0.00 66 1014.9
20260901024515 84 158 3.0 8.0 0.00 0.00 0.00 65 1014.9
20260901023019 84 144 3.0 6.0 0.00 0.00 0.00 65 1014.7
20260901021517 85 200 3.0 6.0 0.00 0.00 0.00 64 1014.6
20260901020012 85 154 3.0 7.0 0.00 0.00 0.00 63 1014.6
20260901014532 85 162 3.0 6.0 0.00 0.00 0.00 64 1014.2
20260901013011 86 180 2.0 5.0 0.00 0.00 0.00 63 1014.2
20260901011512 86 166 1.0 4.0 0.00 0.00 0.00 63 1014.1
20260901010010 86 196 2.0 4.0 0.00 0.00 0.00 62 1014.0
20260901004508 87 160 1.0 3.0 0.00 0.00 0.00 61 1013.9
20260901003008 88 181 2.0 4.0 0.00 0.00 0.00 59 1013.8
20260901001506 91 184 2.0 3.0 0.00 0.00 0.00 55 1013.9
20260901000006 93 155 0.0 2.0 0.00 0.00 0.00 52 1013.9
20260831234508 94 158 1.0 3.0 0.00 0.00 0.00 51 1014.0
20260831233005 94 151 2.0 5.0 0.00 0.00 0.00 49 1014.0
20260831231505 95 99 2.0 6.0 0.00 0.00 0.00 49 1014.0
20260831230005 96 143 2.0 6.0 0.00 0.00 0.00 48 1013.9
20260831224503 96 160 1.0 9.0 0.00 0.00 0.00 50 1014.0
20260831223003 97 205 3.0 5.0 0.00 0.00 0.00 48 1013.9
20260831221603 96 163 5.0 10.0 0.00 0.00 0.00 48 1014.1
20260831220100 97 155 4.0 9.0 0.00 0.00 0.00 45 1014.1
20260831214606 97 200 5.0 12.0 0.00 0.00 0.00 46 1014.0
20260831213058 97 168 4.0 11.0 0.00 0.00 0.00 45 1014.1
20260831211557 97 172 2.0 10.0 0.00 0.00 0.00 46 1014.1
20260831210055 97 225 4.0 8.0 0.00 0.00 0.00 46 1014.1
20260831204605 97 250 3.0 10.0 0.00 0.00 0.00 47 1014.1
20260831203052 96 214 3.0 11.0 0.00 0.00 0.00 49 1014.1
20260831201551 96 161 6.0 10.0 0.00 0.00 0.00 46 1014.3
20260831200049 96 114 4.0 11.0 0.00 0.00 0.00 48 1014.3
20260831194548 96 110 5.0 12.0 0.00 0.00 0.00 48 1014.4
20260831193047 96 152 4.0 12.0 0.00 0.00 0.00 49 1014.5
20260831191545 95 194 4.0 13.0 0.00 0.00 0.00 48 1014.8
20260831190044 95 131 2.0 10.0 0.00 0.00 0.00 49 1014.8
20260831184542 95 159 3.0 9.0 0.00 0.00 0.00 50 1014.9
20260831183041 95 150 3.0 8.0 0.00 0.00 0.00 50 1015.2
20260831181548 95 219 4.0 8.0 0.00 0.00 0.00 48 1015.4
20260831180043 94 294 4.0 10.0 0.00 0.00 0.00 48 1015.4
20260831174536 93 233 3.0 9.0 0.00 0.00 0.00 50 1015.7
20260831173032 92 219 5.0 8.0 0.00 0.00 0.00 50 1015.9
20260831171532 91 214 4.0 10.0 0.00 0.00 0.00 51 1016.0
20260831170032 91 190 4.0 9.0 0.00 0.00 0.00 54 1016.2
20260831164528 90 308 5.0 12.0 0.00 0.00 0.00 52 1016.4
20260831163024 89 269 5.0 10.0 0.00 0.00 0.00 54 1016.4
20260831161522 89 233 2.0 9.0 0.00 0.00 0.00 58 1016.5
20260831160019 88 170 4.0 8.0 0.00 0.00 0.00 55 1016.5
20260831154516 87 194 4.0 10.0 0.00 0.00 0.00 57 1016.5
20260831153015 85 192 3.0 10.0 0.00 0.00 0.00 57 1016.2
20260831151515 84 266 4.0 11.0 0.00 0.00 0.00 57 1016.5
20260831150006 83 234 4.0 10.0 0.00 0.00 0.00 57 1016.5
20260831144503 83 238 4.0 8.0 0.00 0.00 0.00 58 1016.3
20260831143114 82 177 5.0 12.0 0.00 0.00 0.00 59 1016.2
20260831141604 81 209 4.0 11.0 0.00 0.00 0.00 58 1016.3
20260831140054 80 195 4.0 9.0 0.00 0.00 0.00 61 1016.1
20260831134551 79 143 4.0 8.0 0.00 0.00 0.00 61 1016.1
20260831133047 79 217 3.0 7.0 0.00 0.00 0.00 62 1016.1